Regional Weather Roundup
Issued by NWS

Home | Current Version | Previous Version | Text Only | Print | Product List | Glossary On
Versions: 1 2 3 4 5 6 7 8 9 10 11 12 13 14 15 16 17 18 19 20 21 22 23 24 25 26 27 28 29 30 31 32 33 34 35 36 37 38 39 40 41 42 43 44 45 46 47 48 49 50
000
ASUS46 KSTO 260715
RWRCA

NORTHERN AND CENTRAL CA REGIONAL WEATHER ROUNDUP
NATIONAL WEATHER SERVICE SACRAMENTO CA
1200 AM PDT WED APR 26 2017

NOTE: FAIR INDICATES FEW OR NO CLOUDS BELOW 12,000 FEET WITH NO
SIGNIFICANT WEATHER AND/OR OBSTRUCTIONS TO VISIBILITY.

CAZ001-003-260800-
NORTHWEST AREA

CITY           SKY/WX    TMP DP  RH WIND       PRES   REMARKS
CRESCENT CITY  LGT RAIN  53  53 100 S13       30.05F
UKIAH          CLOUDY    56  52  86 CALM      30.10F
$$

CAZ006-505>513-260800-
BAY AREA

CITY           SKY/WX    TMP DP  RH WIND       PRES   REMARKS
SANTA ROSA     CLOUDY    57  52  83 W7        30.08F
SAN RAFAEL     N/A       55  MM  MM MISG
NAPA           CLOUDY    58  52  80 W10       30.08F
CONCORD        CLOUDY    59  52  77 SW8       30.10R
OAKLAND CITY   N/A      MM  MM  MM MISG
OAKLAND        MOCLDY    59  54  83 W10       30.11S
SAN FRAN CITY  N/A       55  MM  86 MISG
SAN FRAN ARPT  MOCLDY    57  51  80 NW7       30.10F
LIVERMORE      MOCLDY    55  51  86 W13       30.09F
HAYWARD        CLOUDY    59  50  72 W12       30.11R
REDWOOD CITY   N/A       55  MM  84 MISG
MOFFETT ARPT   PTCLDY    57  50  77 CALM      30.12S
SAN JOSE ARPT  MOCLDY    58  51  78 N6        30.11F
$$
CAZ034-037-514>518-260800-
CENTRAL COAST

CITY           SKY/WX    TMP DP  RH WIND       PRES   REMARKS
WATSONVILLE    PTCLDY    54  52  93 NE3       30.12S
SALINAS        CLEAR     56  51  84 SW6       30.11F
MONTEREY       PTCLDY    56  51  84 VRB5      30.12F
SAN LUIS OBISP CLEAR     54  49  83 NW9       30.05F
SANTA MARIA    CLEAR     51  49  92 NW6       30.05F
$$
CAZ015-016-260800-
NORTHERN SACRAMENTO VALLEY

CITY           SKY/WX    TMP DP  RH WIND       PRES   REMARKS
REDDING        LGT RAIN  58  53  84 NE3       30.02S
RED BLUFF      CLOUDY    59  51  75 NW5       30.03S
OROVILLE       CLOUDY    63  47  55 SE7       30.05S
$$
CAZ016>018-260800-
SOUTHERN SACRAMENTO VALLEY

CITY           SKY/WX    TMP DP  RH WIND       PRES   REMARKS
AUBURN         MOCLDY    57  45  62 MISG      30.06F
BEALE AFB      CLOUDY    61  52  72 SE8       30.02F
LINCOLN        CLOUDY    61  52  72 SE6       30.04S
MARYSVILLE     CLOUDY    61  55  81 SE6       30.04S
SAC INTL ARPT  CLOUDY    60  56  86 S5        30.03S
MATHER AIRPORT NOT AVBL
DOWNTOWN SAC   N/A       59  MM  MM MISG
SAC EXEC ARPT  MOCLDY    58  54  86 S5        30.05R
VACAVILLE      CLOUDY    62  52  69 S3        30.06S
TRAVIS AFB     CLOUDY    58  52  81 SW12      30.04S
$$
CAZ019>021-260800-
SAN JOAQUIN VALLEY

CITY           SKY/WX    TMP DP  RH WIND       PRES   REMARKS
STOCKTON       PTCLDY    58  52  80 W13       30.06F
MODESTO        PTCLDY    59  51  75 NW10      30.05F
MERCED         PTCLDY    56  49  77 N6        30.06S
LEMOORE        MOCLDY    57  44  62 NW9       30.07R
FRESNO         PTCLDY    59  50  72 NW15      30.06R
HANFORD        MOCLDY    60  50  69 NW12      30.06R
PORTERVILLE      N/A     57  45  64 CALM      30.05S
BAKERSFIELD    PTCLDY    57  41  55 NW5       30.05S
$$
CAZ011-012-071-260800-
NORTHERN MOUNTAINS

CITY           SKY/WX    TMP DP  RH WIND       PRES   REMARKS
YREKA          LGT RAIN  50  44  80 W5        30.03F
MOUNT SHASTA   CLOUDY    45  42  89 CALM      30.04S
ALTURAS        CLOUDY    46  40  79 SW5       30.02S
$$
CAZ011-012-071-260800-
SIERRA NEVADA MTNS

CITY           SKY/WX    TMP DP  RH WIND       PRES   REMARKS
BLUE CANYON    CLOUDY    43  39  86 CALM      30.12S
TRUCKEE        CLOUDY    41  36  81 CALM      30.11F
TAHOE VLY ARPT CLOUDY    42  37  82 CALM      30.11R
MAMMOTH LAKES  CLOUDY    43  30  60 CALM      30.10S
$$




USA.gov is the U.S. government's official web portal to all federal, state and local government web resources and services.